• In Moldova, Republic
  • List of Countries
  • For 7 days
  • Water Temperature
  • Satellite Maps
  • Weather Map
  • Weather Widgets
  • user-avatar
    Login

    Hourly Weather Sydney

    Today, 16 August, Thursday

    Time Temperature Precipitation Wind Pressure Humidity
    00:00 +17°C° 0 mm 4 mps 756 mmHg 33%
    01:00 +15°C° 0 mm 4 mps 756 mmHg 33%
    02:00 +14°C° 0 mm 4 mps 756 mmHg 35%
    03:00 +14°C° 0 mm 3 mps 756 mmHg 36%
    04:00 +13°C° 0 mm 3 mps 755 mmHg 37%
    05:00 +13°C° 0 mm 3 mps 756 mmHg 41%
    06:00 +12°C° 0 mm 4 mps 756 mmHg 45%
    07:00 +12°C° 0 mm 4 mps 757 mmHg 49%
    08:00 +14°C° 0 mm 5 mps 757 mmHg 46%
    09:00 +16°C° 0 mm 5 mps 757 mmHg 42%
    10:00 +20°C° 0 mm 5 mps 757 mmHg 38%
    11:00 +20°C° 0 mm 5 mps 757 mmHg 35%
    12:00 +21°C° 0 mm 4 mps 757 mmHg 32%
    13:00 +22°C° 0 mm 4 mps 756 mmHg 29%
    14:00 +21°C° 0 mm 4 mps 757 mmHg 29%
    15:00 +21°C° 0 mm 4 mps 757 mmHg 29%
    16:00 +20°C° 0 mm 5 mps 757 mmHg 30%
    17:00 +17°C° 0 mm 5 mps 757 mmHg 36%
    18:00 +15°C° 0 mm 4 mps 758 mmHg 41%
    19:00 +13°C° 0 mm 4 mps 759 mmHg 47%
    20:00 +12°C° 0 mm 4 mps 759 mmHg 51%
    21:00 +11°C° 0 mm 4 mps 759 mmHg 55%
    22:00 +10°C° 0 mm 4 mps 760 mmHg 59%
    23:00 +9°C° 0 mm 3 mps 760 mmHg 62%

    Tomorrow, 17 August, Friday

    Time Temperature Precipitation Wind Pressure Humidity
    00:00 +9°C° 0 mm 3 mps 760 mmHg 65%
    01:00 +8°C° 0 mm 3 mps 760 mmHg 68%
    02:00 +8°C° 0 mm 3 mps 760 mmHg 70%
    03:00 +7°C° 0 mm 3 mps 760 mmHg 71%
    04:00 +7°C° 0 mm 3 mps 760 mmHg 73%
    05:00 +5°C° 0 mm 3 mps 760 mmHg 73%
    06:00 +5°C° 0 mm 3 mps 760 mmHg 73%
    07:00 +5°C° 0 mm 3 mps 761 mmHg 73%
    08:00 +9°C° 0 mm 3 mps 760 mmHg 61%
    09:00 +12°C° 0 mm 3 mps 760 mmHg 50%
    10:00 +16°C° 0 mm 3 mps 760 mmHg 38%
    11:00 +17°C° 0 mm 3 mps 760 mmHg 34%
    12:00 +18°C° 0 mm 2 mps 759 mmHg 30%
    13:00 +19°C° 0 mm 2 mps 759 mmHg 26%
    14:00 +19°C° 0 mm 2 mps 758 mmHg 27%
    15:00 +19°C° 0 mm 2 mps 758 mmHg 28%
    16:00 +19°C° 0 mm 2 mps 758 mmHg 29%
    17:00 +17°C° 0 mm 3 mps 759 mmHg 34%
    18:00 +14°C° 0 mm 3 mps 759 mmHg 40%
    19:00 +12°C° 0 mm 3 mps 759 mmHg 46%
    20:00 +11°C° 0 mm 3 mps 760 mmHg 49%
    21:00 +10°C° 0 mm 4 mps 760 mmHg 53%
    22:00 +8°C° 0 mm 4 mps 760 mmHg 56%
    23:00 +7°C° 0 mm 4 mps 760 mmHg 59%

    Day after tomorrow, 18 August, Saturday

    Time Temperature Precipitation Wind Pressure Humidity
    00:00 +8°C° 0 mm 3 mps 760 mmHg 62%
    01:00 +7°C° 0 mm 3 mps 760 mmHg 65%
    02:00 +7°C° 0 mm 3 mps 759 mmHg 65%
    03:00 +5°C° 0 mm 4 mps 759 mmHg 65%
    04:00 +5°C° 0 mm 4 mps 759 mmHg 65%
    05:00 +5°C° 0 mm 4 mps 759 mmHg 64%
    06:00 +6°C° 0 mm 4 mps 759 mmHg 62%
    07:00 +6°C° 0 mm 4 mps 759 mmHg 61%
    08:00 +9°C° 0 mm 5 mps 758 mmHg 52%
    09:00 +14°C° 0 mm 5 mps 758 mmHg 42%
    10:00 +17°C° 0 mm 6 mps 757 mmHg 32%
    11:00 +20°C° 0 mm 6 mps 756 mmHg 29%
    12:00 +21°C° 0 mm 7 mps 756 mmHg 26%
    13:00 +22°C° 0 mm 7 mps 755 mmHg 24%
    14:00 +21°C° 0.1 mm 8 mps 755 mmHg 31%
    15:00 +18°C° 0.1 mm 8 mps 755 mmHg 38%
    16:00 +16°C° 0.1 mm 9 mps 755 mmHg 45%
    17:00 +13°C° 0 mm 8 mps 755 mmHg 48%
    18:00 +12°C° 0 mm 8 mps 756 mmHg 51%
    19:00 +10°C° 0 mm 8 mps 757 mmHg 55%
    20:00 +10°C° 0 mm 8 mps 757 mmHg 55%
    21:00 +9°C° 0 mm 8 mps 758 mmHg 55%
    22:00 +9°C° 0 mm 8 mps 758 mmHg 55%
    23:00 +7°C° 0 mm 8 mps 758 mmHg 55%

    19 August, Sunday

    Time Temperature Precipitation Wind Pressure Humidity
    00:00 +7°C° 0 mm 8 mps 757 mmHg 55%
    01:00 +7°C° 0 mm 8 mps 757 mmHg 56%
    02:00 +7°C° 0 mm 9 mps 757 mmHg 55%
    03:00 +6°C° 0 mm 9 mps 757 mmHg 53%
    04:00 +6°C° 0 mm 9 mps 757 mmHg 52%
    05:00 +6°C° 0 mm 9 mps 757 mmHg 51%
    06:00 +6°C° 0 mm 9 mps 757 mmHg 51%
    07:00 +6°C° 0 mm 8 mps 757 mmHg 50%
    08:00 +7°C° 0 mm 9 mps 758 mmHg 45%
    09:00 +10°C° 0 mm 9 mps 758 mmHg 40%
    10:00 +12°C° 0 mm 9 mps 758 mmHg 34%
    11:00 +12°C° 0 mm 10 mps 758 mmHg 35%
    12:00 +12°C° 0 mm 10 mps 757 mmHg 35%
    13:00 +13°C° 0 mm 10 mps 757 mmHg 36%
    14:00 +13°C° 0.1 mm 10 mps 757 mmHg 36%
    15:00 +13°C° 0.1 mm 10 mps 757 mmHg 35%
    16:00 +12°C° 0.1 mm 10 mps 757 mmHg 35%
    17:00 +11°C° 0.1 mm 9 mps 758 mmHg 38%
    18:00 +10°C° 0.1 mm 9 mps 759 mmHg 41%
    19:00 +8°C° 0.1 mm 9 mps 759 mmHg 45%
    20:00 +8°C° 0 mm 9 mps 760 mmHg 46%
    21:00 +7°C° 0 mm 9 mps 760 mmHg 47%
    22:00 +7°C° 0 mm 9 mps 761 mmHg 48%
    23:00 +6°C° 0 mm 9 mps 761 mmHg 49%

    20 August, Monday

    Time Temperature Precipitation Wind Pressure Humidity
    00:00 +6°C° 0 mm 9 mps 760 mmHg 50%
    01:00 +5°C° 0 mm 9 mps 760 mmHg 50%
    02:00 +5°C° 0.2 mm 9 mps 761 mmHg 51%
    03:00 +6°C° 0.2 mm 9 mps 761 mmHg 51%
    04:00 +6°C° 0.2 mm 9 mps 761 mmHg 52%
    05:00 +5°C° 0.2 mm 9 mps 762 mmHg 52%
    06:00 +5°C° 0.2 mm 9 mps 762 mmHg 53%
    07:00 +5°C° 0.2 mm 9 mps 763 mmHg 53%
    08:00 +7°C° 0 mm 9 mps 763 mmHg 48%
    09:00 +10°C° 0 mm 9 mps 763 mmHg 42%
    10:00 +11°C° 0 mm 9 mps 763 mmHg 36%
    11:00 +12°C° 0 mm 8 mps 763 mmHg 32%
    12:00 +14°C° 0 mm 7 mps 762 mmHg 29%
    13:00 +16°C° 0 mm 7 mps 762 mmHg 25%
    14:00 +15°C° 0 mm 6 mps 762 mmHg 25%
    15:00 +15°C° 0 mm 6 mps 762 mmHg 26%
    16:00 +15°C° 0 mm 5 mps 761 mmHg 26%
    17:00 +14°C° 0 mm 5 mps 762 mmHg 32%
    18:00 +12°C° 0 mm 4 mps 762 mmHg 38%
    19:00 +10°C° 0 mm 3 mps 763 mmHg 44%
    20:00 +8°C° 0 mm 4 mps 763 mmHg 48%
    21:00 +7°C° 0 mm 5 mps 763 mmHg 53%
    22:00 +6°C° 0 mm 5 mps 763 mmHg 57%
    23:00 +6°C° 0 mm 5 mps 762 mmHg 60%

    21 August, Tuesday

    Time Temperature Precipitation Wind Pressure Humidity
    00:00 +6°C° 0 mm 5 mps 762 mmHg 64%
    01:00 +5°C° 0 mm 5 mps 762 mmHg 67%
    02:00 +4°C° 0 mm 6 mps 761 mmHg 68%
    03:00 +4°C° 0 mm 6 mps 761 mmHg 68%
    04:00 +3°C° 0 mm 6 mps 761 mmHg 68%
    05:00 +4°C° 0 mm 6 mps 761 mmHg 67%
    06:00 +4°C° 0 mm 6 mps 761 mmHg 66%
    07:00 +4°C° 0 mm 6 mps 761 mmHg 65%
    08:00 +8°C° 0 mm 6 mps 761 mmHg 57%
    09:00 +10°C° 0 mm 6 mps 761 mmHg 48%
    10:00 +14°C° 0 mm 6 mps 760 mmHg 40%
    11:00 +15°C° 0 mm 6 mps 760 mmHg 38%
    12:00 +16°C° 0 mm 6 mps 759 mmHg 36%
    13:00 +17°C° 0 mm 6 mps 758 mmHg 34%
    14:00 +17°C° 0 mm 6 mps 758 mmHg 36%
    15:00 +16°C° 0 mm 7 mps 758 mmHg 38%
    16:00 +16°C° 0 mm 7 mps 758 mmHg 41%
    17:00 +14°C° 0 mm 7 mps 759 mmHg 46%
    18:00 +12°C° 0 mm 7 mps 759 mmHg 51%
    19:00 +10°C° 0 mm 6 mps 760 mmHg 57%
    20:00 +9°C° 0 mm 6 mps 760 mmHg 61%
    21:00 +9°C° 0 mm 6 mps 760 mmHg 66%
    22:00 +8°C° 0 mm 6 mps 760 mmHg 70%
    23:00 +8°C° 0 mm 6 mps 760 mmHg 73%
    Show more